owner,sensor,date,latitude,longitude,vertical_datum,direction_of_sea_water_velocity,sea_water_speed,upward_sea_water_velocity,qcFlag 
TABS,ioos:station:wmo:42045:1,2014-10-01T00:00:00Z,26.2168,-96.4998,2.0,0.0,0.0,-99999.0,'11133222,11111222,99999999' 
TABS,ioos:station:wmo:42045:1,2014-10-01T00:30:00Z,26.2168,-96.4998,2.0,167.2803227,48.23366978,-99999.0,'11111222,11111222,99999999' 
TABS,ioos:station:wmo:42045:1,2014-10-01T01:00:00Z,26.2168,-96.4998,2.0,174.708389,47.60285811,-99999.0,'11111222,11111222,99999999' 
TABS,ioos:station:wmo:42045:1,2014-10-01T01:30:00Z,26.2168,-96.4998,2.0,175.8847155,47.10143098,-99999.0,'11111222,11111222,99999999' 
TABS,ioos:station:wmo:42045:1,2014-10-01T02:00:00Z,26.2168,-96.4998,2.0,178.1915792,45.95288239,-99999.0,'11111222,11111222,99999999' 
TABS,ioos:station:wmo:42045:1,2014-10-01T02:30:00Z,26.2168,-96.4998,2.0,177.8453606,43.89102528,-99999.0,'11111222,11111222,99999999' 
TABS,ioos:station:wmo:42045:1,2014-10-01T03:00:00Z,26.2168,-96.4998,2.0,179.6253979,44.38094749,-99999.0,'11111222,11111222,99999999' 
TABS,ioos:station:wmo:42045:1,2014-10-01T03:30:00Z,26.2168,-96.4998,2.0,181.0218694,43.16686808,-99999.0,'11111222,11111222,99999999' 
TABS,ioos:station:wmo:42045:1,2014-10-01T04:00:00Z,26.2168,-96.4998,2.0,184.7116347,38.5904198,-99999.0,'11111222,11111222,99999999' 
TABS,ioos:station:wmo:42045:1,2014-10-01T04:30:00Z,26.2168,-96.4998,2.0,184.1574172,36.27546416,-99999.0,'11111222,11111222,99999999' 
TABS,ioos:station:wmo:42045:1,2014-10-01T05:00:00Z,26.2168,-96.4998,2.0,180.9376531,35.43474707,-99999.0,'11111222,11111222,99999999' 
TABS,ioos:station:wmo:42045:1,2014-10-01T05:30:00Z,26.2168,-96.4998,2.0,179.7260863,31.40035828,-99999.0,'11111222,11111222,99999999' 
TABS,ioos:station:wmo:42045:1,2014-10-01T06:00:00Z,26.2168,-96.4998,2.0,180.8213164,29.29301111,-99999.0,'11111222,11111222,99999999' 
TABS,ioos:station:wmo:42045:1,2014-10-01T06:30:00Z,26.2168,-96.4998,2.0,177.6079459,28.27463351,-99999.0,'11111222,11111222,99999999' 
TABS,ioos:station:wmo:42045:1,2014-10-01T07:00:00Z,26.2168,-96.4998,2.0,172.5166072,24.80122981,-99999.0,'11111222,11111222,99999999' 
TABS,ioos:station:wmo:42045:1,2014-10-01T07:30:00Z,26.2168,-96.4998,2.0,169.4428711,25.81699634,-99999.0,'11111222,11111222,99999999' 
TABS,ioos:station:wmo:42045:1,2014-10-01T08:00:00Z,26.2168,-96.4998,2.0,169.8178386,24.60753746,-99999.0,'11111222,11111222,99999999' 
TABS,ioos:station:wmo:42045:1,2014-10-01T08:30:00Z,26.2168,-96.4998,2.0,172.3398199,27.23301305,-99999.0,'11111222,11111222,99999999' 
TABS,ioos:station:wmo:42045:1,2014-10-01T09:00:00Z,26.2168,-96.4998,2.0,168.1618873,26.17673203,-99999.0,'11111222,11111222,99999999' 
TABS,ioos:station:wmo:42045:1,2014-10-01T09:30:00Z,26.2168,-96.4998,2.0,163.3378716,22.07694272,-99999.0,'11111222,11111222,99999999' 
TABS,ioos:station:wmo:42045:1,2014-10-01T10:00:00Z,26.2168,-96.4998,2.0,160.4579254,26.5174848,-99999.0,'11111222,11111222,99999999' 
TABS,ioos:station:wmo:42045:1,2014-10-01T10:30:00Z,26.2168,-96.4998,2.0,162.1710425,23.61404878,-99999.0,'11111222,11111222,99999999' 
TABS,ioos:station:wmo:42045:1,2014-10-01T11:00:00Z,26.2168,-96.4998,2.0,165.7539689,23.20353852,-99999.0,'11111222,11111222,99999999' 
TABS,ioos:station:wmo:42045:1,2014-10-01T11:30:00Z,26.2168,-96.4998,2.0,158.7637837,22.58350947,-99999.0,'11111222,11111222,99999999' 
TABS,ioos:station:wmo:42045:1,2014-10-01T12:00:00Z,26.2168,-96.4998,2.0,160.6740933,21.96783558,-99999.0,'11111222,11111222,99999999' 
TABS,ioos:station:wmo:42045:1,2014-10-01T12:30:00Z,26.2168,-96.4998,2.0,159.0288054,25.37050453,-99999.0,'11111222,11111222,99999999' 
TABS,ioos:station:wmo:42045:1,2014-10-01T13:00:00Z,26.2168,-96.4998,2.0,159.91996,24.78665972,-99999.0,'11111222,11111222,99999999' 
TABS,ioos:station:wmo:42045:1,2014-10-01T13:30:00Z,26.2168,-96.4998,2.0,161.4750386,28.23284966,-99999.0,'11111222,11111222,99999999' 
TABS,ioos:station:wmo:42045:1,2014-10-01T14:00:00Z,26.2168,-96.4998,2.0,164.9925592,29.19578052,-99999.0,'11111222,11111222,99999999' 
TABS,ioos:station:wmo:42045:1,2014-10-01T14:30:00Z,26.2168,-96.4998,2.0,167.565541,29.58393145,-99999.0,'11111222,11111222,99999999' 
TABS,ioos:station:wmo:42045:1,2014-10-01T15:00:00Z,26.2168,-96.4998,2.0,170.8845212,29.85704774,-99999.0,'11111222,11111222,99999999' 
TABS,ioos:station:wmo:42045:1,2014-10-01T15:30:00Z,26.2168,-96.4998,2.0,168.6517627,29.47626164,-99999.0,'11111222,11111222,99999999' 
TABS,ioos:station:wmo:42045:1,2014-10-01T16:00:00Z,26.2168,-96.4998,2.0,161.0462289,26.20054389,-99999.0,'11111222,11111222,99999999' 
TABS,ioos:station:wmo:42045:1,2014-10-01T16:30:00Z,26.2168,-96.4998,2.0,160.6049446,26.0481746,-99999.0,'11111222,11111222,99999999' 
TABS,ioos:station:wmo:42045:1,2014-10-01T17:00:00Z,26.2168,-96.4998,2.0,153.3474406,20.53160004,-99999.0,'11111222,11111222,99999999' 
TABS,ioos:station:wmo:42045:1,2014-10-01T17:30:00Z,26.2168,-96.4998,2.0,142.4382563,20.04546083,-99999.0,'11111222,11111222,99999999' 
TABS,ioos:station:wmo:42045:1,2014-10-01T18:00:00Z,26.2168,-96.4998,2.0,142.0708929,18.61117944,-99999.0,'11111222,11111222,99999999' 
TABS,ioos:station:wmo:42045:1,2014-10-01T18:30:00Z,26.2168,-96.4998,2.0,170.3337758,25.43104009,-99999.0,'11111222,11111222,99999999' 
TABS,ioos:station:wmo:42045:1,2014-10-01T19:00:00Z,26.2168,-96.4998,2.0,178.8645061,26.24515193,-99999.0,'11111222,11111222,99999999' 
TABS,ioos:station:wmo:42045:1,2014-10-01T19:30:00Z,26.2168,-96.4998,2.0,174.8903585,23.80458989,-99999.0,'11111222,11111222,99999999' 
TABS,ioos:station:wmo:42045:1,2014-10-01T20:00:00Z,26.2168,-96.4998,2.0,173.4451923,22.42659136,-99999.0,'11111222,11111222,99999999' 
TABS,ioos:station:wmo:42045:1,2014-10-01T20:30:00Z,26.2168,-96.4998,2.0,170.9345896,23.48331535,-99999.0,'11111222,11111222,99999999' 
TABS,ioos:station:wmo:42045:1,2014-10-01T21:00:00Z,26.2168,-96.4998,2.0,163.1564536,23.22640308,-99999.0,'11111222,11111222,99999999' 
TABS,ioos:station:wmo:42045:1,2014-10-01T21:30:00Z,26.2168,-96.4998,2.0,166.4672885,24.82933144,-99999.0,'11111222,11111222,99999999' 
TABS,ioos:station:wmo:42045:1,2014-10-01T22:00:00Z,26.2168,-96.4998,2.0,176.7169221,23.74897261,-99999.0,'11111222,11111222,99999999' 
TABS,ioos:station:wmo:42045:1,2014-10-01T22:30:00Z,26.2168,-96.4998,2.0,184.6992703,19.28483342,-99999.0,'11111222,11111222,99999999' 
TABS,ioos:station:wmo:42045:1,2014-10-01T23:00:00Z,26.2168,-96.4998,2.0,155.6796922,23.7473788,-99999.0,'11111222,11111222,99999999' 
TABS,ioos:station:wmo:42045:1,2014-10-01T23:30:00Z,26.2168,-96.4998,2.0,155.3556633,18.94566969,-99999.0,'11111222,11111222,99999999' 
TABS,ioos:station:wmo:42045:1,2014-10-02T00:00:00Z,26.2168,-96.4998,2.0,167.1142473,27.1743206,-99999.0,'11111222,11111222,99999999' 
TABS,ioos:station:wmo:42045:1,2014-10-02T00:30:00Z,26.2168,-96.4998,2.0,158.2605873,17.11740635,-99999.0,'11111222,11111222,99999999' 
TABS,ioos:station:wmo:42045:1,2014-10-02T01:00:00Z,26.2168,-96.4998,2.0,163.6654434,22.86281916,-99999.0,'11111222,11111222,99999999' 
TABS,ioos:station:wmo:42045:1,2014-10-02T01:30:00Z,26.2168,-96.4998,2.0,171.7266631,30.02243328,-99999.0,'11111222,11111222,99999999' 
TABS,ioos:station:wmo:42045:1,2014-10-02T02:00:00Z,26.2168,-96.4998,2.0,168.2747049,28.68862144,-99999.0,'11111222,11111222,99999999' 
TABS,ioos:station:wmo:42045:1,2014-10-02T02:30:00Z,26.2168,-96.4998,2.0,172.0617988,26.5746364,-99999.0,'11111222,11111222,99999999' 
TABS,ioos:station:wmo:42045:1,2014-10-02T03:00:00Z,26.2168,-96.4998,2.0,172.4759867,30.4723514,-99999.0,'11111222,11111222,99999999' 
TABS,ioos:station:wmo:42045:1,2014-10-02T03:30:00Z,26.2168,-96.4998,2.0,176.0751418,26.88304298,-99999.0,'11111222,11111222,99999999' 
TABS,ioos:station:wmo:42045:1,2014-10-02T04:00:00Z,26.2168,-96.4998,2.0,171.2984349,27.23345002,-99999.0,'11111222,11111222,99999999' 
TABS,ioos:station:wmo:42045:1,2014-10-02T04:30:00Z,26.2168,-96.4998,2.0,162.7806218,24.59224471,-99999.0,'11111222,11111222,99999999' 
TABS,ioos:station:wmo:42045:1,2014-10-02T05:00:00Z,26.2168,-96.4998,2.0,159.5369114,24.48504033,-99999.0,'11111222,11111222,99999999' 
TABS,ioos:station:wmo:42045:1,2014-10-02T05:30:00Z,26.2168,-96.4998,2.0,161.4439668,28.47004917,-99999.0,'11111222,11111222,99999999' 
TABS,ioos:station:wmo:42045:1,2014-10-02T06:00:00Z,26.2168,-96.4998,2.0,157.012812,28.44904568,-99999.0,'11111222,11111222,99999999' 
TABS,ioos:station:wmo:42045:1,2014-10-02T06:30:00Z,26.2168,-96.4998,2.0,158.8352935,26.22922988,-99999.0,'11111222,11111222,99999999' 
TABS,ioos:station:wmo:42045:1,2014-10-02T07:00:00Z,26.2168,-96.4998,2.0,157.6348204,26.80641901,-99999.0,'11111222,11111222,99999999' 
TABS,ioos:station:wmo:42045:1,2014-10-02T07:30:00Z,26.2168,-96.4998,2.0,162.0341079,25.87146111,-99999.0,'11111222,11111222,99999999' 
TABS,ioos:station:wmo:42045:1,2014-10-02T08:00:00Z,26.2168,-96.4998,2.0,166.0834541,28.98064527,-99999.0,'11111222,11111222,99999999' 
TABS,ioos:station:wmo:42045:1,2014-10-02T08:30:00Z,26.2168,-96.4998,2.0,165.3832154,28.25442443,-99999.0,'11111222,11111222,99999999' 
TABS,ioos:station:wmo:42045:1,2014-10-02T09:00:00Z,26.2168,-96.4998,2.0,168.1543543,29.37555787,-99999.0,'11111222,11111222,99999999' 
TABS,ioos:station:wmo:42045:1,2014-10-02T09:30:00Z,26.2168,-96.4998,2.0,164.1321361,26.33341793,-99999.0,'11111222,11111222,99999999' 
TABS,ioos:station:wmo:42045:1,2014-10-02T10:00:00Z,26.2168,-96.4998,2.0,162.8864452,23.72022976,-99999.0,'11111222,11111222,99999999' 
TABS,ioos:station:wmo:42045:1,2014-10-02T10:30:00Z,26.2168,-96.4998,2.0,160.8833541,24.45878574,-99999.0,'11111222,11111222,99999999' 
TABS,ioos:station:wmo:42045:1,2014-10-02T11:00:00Z,26.2168,-96.4998,2.0,143.4284778,27.2563699,-99999.0,'11111222,11111222,99999999' 
TABS,ioos:station:wmo:42045:1,2014-10-02T11:30:00Z,26.2168,-96.4998,2.0,153.1644204,30.32589158,-99999.0,'11111222,11111222,99999999' 
TABS,ioos:station:wmo:42045:1,2014-10-02T12:00:00Z,26.2168,-96.4998,2.0,158.5034115,25.81573164,-99999.0,'11111222,11111222,99999999' 
TABS,ioos:station:wmo:42045:1,2014-10-02T12:30:00Z,26.2168,-96.4998,2.0,154.7417962,29.99794826,-99999.0,'11111222,11111222,99999999' 
TABS,ioos:station:wmo:42045:1,2014-10-02T13:00:00Z,26.2168,-96.4998,2.0,148.3502311,28.51025254,-99999.0,'11111222,11111222,99999999' 
TABS,ioos:station:wmo:42045:1,2014-10-02T13:30:00Z,26.2168,-96.4998,2.0,149.7963589,28.0476327,-99999.0,'11111222,11111222,99999999' 
TABS,ioos:station:wmo:42045:1,2014-10-02T14:00:00Z,26.2168,-96.4998,2.0,146.5132164,30.46710029,-99999.0,'11111222,11111222,99999999' 
TABS,ioos:station:wmo:42045:1,2014-10-02T14:30:00Z,26.2168,-96.4998,2.0,146.6034492,33.01064222,-99999.0,'11111222,11111222,99999999' 
TABS,ioos:station:wmo:42045:1,2014-10-02T15:00:00Z,26.2168,-96.4998,2.0,147.1781771,29.46351133,-99999.0,'11111222,11111222,99999999' 
TABS,ioos:station:wmo:42045:1,2014-10-02T15:30:00Z,26.2168,-96.4998,2.0,147.8002274,32.20292067,-99999.0,'11111222,11111222,99999999' 
TABS,ioos:station:wmo:42045:1,2014-10-02T16:00:00Z,26.2168,-96.4998,2.0,141.7915383,32.10876049,-99999.0,'11111222,11111222,99999999' 
TABS,ioos:station:wmo:42045:1,2014-10-02T16:30:00Z,26.2168,-96.4998,2.0,139.1588683,33.44229209,-99999.0,'11111222,11111222,99999999' 
TABS,ioos:station:wmo:42045:1,2014-10-02T17:00:00Z,26.2168,-96.4998,2.0,140.8086647,36.53998495,-99999.0,'11111222,11111222,99999999' 
TABS,ioos:station:wmo:42045:1,2014-10-02T17:30:00Z,26.2168,-96.4998,2.0,141.3172861,35.34368685,-99999.0,'11111222,11111222,99999999' 
TABS,ioos:station:wmo:42045:1,2014-10-02T18:00:00Z,26.2168,-96.4998,2.0,140.7342999,37.22453492,-99999.0,'11111222,11111222,99999999' 
TABS,ioos:station:wmo:42045:1,2014-10-02T18:30:00Z,26.2168,-96.4998,2.0,140.6020826,38.67964064,-99999.0,'11111222,11111222,99999999' 
TABS,ioos:station:wmo:42045:1,2014-10-02T19:00:00Z,26.2168,-96.4998,2.0,141.0900904,41.52231328,-99999.0,'11111222,11111222,99999999' 
TABS,ioos:station:wmo:42045:1,2014-10-02T19:30:00Z,26.2168,-96.4998,2.0,144.6572763,40.97055528,-99999.0,'11111222,11111222,99999999' 
TABS,ioos:station:wmo:42045:1,2014-10-02T20:00:00Z,26.2168,-96.4998,2.0,143.3946212,43.30046189,-99999.0,'11111222,11111222,99999999' 
TABS,ioos:station:wmo:42045:1,2014-10-02T20:30:00Z,26.2168,-96.4998,2.0,146.2636319,44.74490586,-99999.0,'11111222,11111222,99999999' 
TABS,ioos:station:wmo:42045:1,2014-10-02T21:00:00Z,26.2168,-96.4998,2.0,145.4224567,41.5492539,-99999.0,'11111222,11111222,99999999' 
TABS,ioos:station:wmo:42045:1,2014-10-02T21:30:00Z,26.2168,-96.4998,2.0,147.2959836,41.73627798,-99999.0,'11111222,11111222,99999999' 
TABS,ioos:station:wmo:42045:1,2014-10-02T22:00:00Z,26.2168,-96.4998,2.0,128.6104358,59.91764765,-99999.0,'11111222,11111222,99999999' 
TABS,ioos:station:wmo:42045:1,2014-10-02T22:30:00Z,26.2168,-96.4998,2.0,129.263928,57.16589893,-99999.0,'11111222,11111222,99999999' 
TABS,ioos:station:wmo:42045:1,2014-10-02T23:00:00Z,26.2168,-96.4998,2.0,136.1627877,52.95906344,-99999.0,'11111222,11111222,99999999' 
TABS,ioos:station:wmo:42045:1,2014-10-02T23:30:00Z,26.2168,-96.4998,2.0,142.0670858,55.6335726,-99999.0,'11111222,11111222,99999999' 
TABS,ioos:station:wmo:42045:1,2014-10-03T00:00:00Z,26.2168,-96.4998,2.0,144.8952291,51.68052631,-99999.0,'11111222,11111222,99999999' 
TABS,ioos:station:wmo:42045:1,2014-10-03T00:30:00Z,26.2168,-96.4998,2.0,146.6910601,22.50745876,-99999.0,'11111222,11111222,99999999' 
TABS,ioos:station:wmo:42045:1,2014-10-03T01:00:00Z,26.2168,-96.4998,2.0,150.8822397,34.4427888,-99999.0,'11111222,11111222,99999999' 
TABS,ioos:station:wmo:42045:1,2014-10-03T01:30:00Z,26.2168,-96.4998,2.0,151.7530816,33.06780005,-99999.0,'11111222,11111222,99999999' 
TABS,ioos:station:wmo:42045:1,2014-10-03T02:00:00Z,26.2168,-96.4998,2.0,157.6160514,25.57714018,-99999.0,'11111222,11111222,99999999' 
TABS,ioos:station:wmo:42045:1,2014-10-03T02:30:00Z,26.2168,-96.4998,2.0,158.6394282,27.26274014,-99999.0,'11111222,11111222,99999999' 
TABS,ioos:station:wmo:42045:1,2014-10-03T03:00:00Z,26.2168,-96.4998,2.0,149.165703,21.98788985,-99999.0,'11111222,11111222,99999999' 
TABS,ioos:station:wmo:42045:1,2014-10-03T03:30:00Z,26.2168,-96.4998,2.0,160.7202918,25.7437371,-99999.0,'11111222,11111222,99999999' 
TABS,ioos:station:wmo:42045:1,2014-10-03T04:00:00Z,26.2168,-96.4998,2.0,159.1434112,25.89688012,-99999.0,'11111222,11111222,99999999' 
TABS,ioos:station:wmo:42045:1,2014-10-03T04:30:00Z,26.2168,-96.4998,2.0,152.9530828,17.02155105,-99999.0,'11111222,11111222,99999999' 
TABS,ioos:station:wmo:42045:1,2014-10-03T05:00:00Z,26.2168,-96.4998,2.0,159.6482945,15.41207643,-99999.0,'11111222,11111222,99999999' 
TABS,ioos:station:wmo:42045:1,2014-10-03T05:30:00Z,26.2168,-96.4998,2.0,145.1800713,17.44316485,-99999.0,'11111222,11111222,99999999' 
TABS,ioos:station:wmo:42045:1,2014-10-03T06:00:00Z,26.2168,-96.4998,2.0,125.9355323,16.06813617,-99999.0,'11111222,11111222,99999999' 
TABS,ioos:station:wmo:42045:1,2014-10-03T06:30:00Z,26.2168,-96.4998,2.0,122.3896713,22.12159352,-99999.0,'11111222,11111222,99999999' 
TABS,ioos:station:wmo:42045:1,2014-10-03T07:00:00Z,26.2168,-96.4998,2.0,120.1932742,20.9178584,-99999.0,'11111222,11111222,99999999' 
TABS,ioos:station:wmo:42045:1,2014-10-03T07:30:00Z,26.2168,-96.4998,2.0,129.7474791,20.23751961,-99999.0,'11111222,11111222,99999999' 
TABS,ioos:station:wmo:42045:1,2014-10-03T08:00:00Z,26.2168,-96.4998,2.0,116.7370475,17.87073586,-99999.0,'11111222,11111222,99999999' 
TABS,ioos:station:wmo:42045:1,2014-10-03T08:30:00Z,26.2168,-96.4998,2.0,120.6545843,22.88853425,-99999.0,'11111222,11111222,99999999' 
TABS,ioos:station:wmo:42045:1,2014-10-03T09:00:00Z,26.2168,-96.4998,2.0,122.997897,23.19093357,-99999.0,'11111222,11111222,99999999' 
TABS,ioos:station:wmo:42045:1,2014-10-03T09:30:00Z,26.2168,-96.4998,2.0,119.4370254,21.24249515,-99999.0,'11111222,11111222,99999999' 
TABS,ioos:station:wmo:42045:1,2014-10-03T10:00:00Z,26.2168,-96.4998,2.0,115.8202505,24.42887022,-99999.0,'11111222,11111222,99999999' 
TABS,ioos:station:wmo:42045:1,2014-10-03T10:30:00Z,26.2168,-96.4998,2.0,120.2748211,26.817457,-99999.0,'11111222,11111222,99999999' 
TABS,ioos:station:wmo:42045:1,2014-10-03T11:00:00Z,26.2168,-96.4998,2.0,119.1227336,28.56068101,-99999.0,'11111222,11111222,99999999' 
TABS,ioos:station:wmo:42045:1,2014-10-03T11:30:00Z,26.2168,-96.4998,2.0,118.8223624,34.51589779,-99999.0,'11111222,11111222,99999999' 
TABS,ioos:station:wmo:42045:1,2014-10-03T12:00:00Z,26.2168,-96.4998,2.0,106.3926432,20.58685503,-99999.0,'11111222,11111222,99999999' 
TABS,ioos:station:wmo:42045:1,2014-10-03T12:30:00Z,26.2168,-96.4998,2.0,100.0745072,43.38901359,-99999.0,'11111222,11111222,99999999' 
TABS,ioos:station:wmo:42045:1,2014-10-03T13:00:00Z,26.2168,-96.4998,2.0,106.0596133,49.59550383,-99999.0,'11111222,11111222,99999999' 
TABS,ioos:station:wmo:42045:1,2014-10-03T13:30:00Z,26.2168,-96.4998,2.0,100.1167004,58.29639526,-99999.0,'11111222,11111222,99999999' 
TABS,ioos:station:wmo:42045:1,2014-10-03T14:00:00Z,26.2168,-96.4998,2.0,103.9554819,63.68991835,-99999.0,'11111222,11111222,99999999' 
TABS,ioos:station:wmo:42045:1,2014-10-03T14:30:00Z,26.2168,-96.4998,2.0,103.3849879,67.43168469,-99999.0,'11111222,11111222,99999999' 
TABS,ioos:station:wmo:42045:1,2014-10-03T15:00:00Z,26.2168,-96.4998,2.0,108.459089,67.42925255,-99999.0,'11111222,11111222,99999999' 
TABS,ioos:station:wmo:42045:1,2014-10-03T15:30:00Z,26.2168,-96.4998,2.0,114.6793618,66.05343897,-99999.0,'11111222,11111222,99999999' 
TABS,ioos:station:wmo:42045:1,2014-10-03T16:00:00Z,26.2168,-96.4998,2.0,121.0966481,65.77159949,-99999.0,'11111222,11111222,99999999' 
TABS,ioos:station:wmo:42045:1,2014-10-03T16:30:00Z,26.2168,-96.4998,2.0,129.0296146,66.28308759,-99999.0,'11111222,11111222,99999999' 
TABS,ioos:station:wmo:42045:1,2014-10-03T17:00:00Z,26.2168,-96.4998,2.0,125.3013441,65.68861165,-99999.0,'11111222,11111222,99999999' 
TABS,ioos:station:wmo:42045:1,2014-10-03T17:30:00Z,26.2168,-96.4998,2.0,145.2535028,71.46307648,-99999.0,'11111222,11111222,99999999' 
TABS,ioos:station:wmo:42045:1,2014-10-03T18:00:00Z,26.2168,-96.4998,2.0,145.4360466,64.56628997,-99999.0,'11111222,11111222,99999999' 
TABS,ioos:station:wmo:42045:1,2014-10-03T18:30:00Z,26.2168,-96.4998,2.0,154.4080058,65.56202636,-99999.0,'11111222,11111222,99999999' 
TABS,ioos:station:wmo:42045:1,2014-10-03T19:00:00Z,26.2168,-96.4998,2.0,159.5671728,64.13518613,-99999.0,'11111222,11111222,99999999' 
TABS,ioos:station:wmo:42045:1,2014-10-03T19:30:00Z,26.2168,-96.4998,2.0,169.355687,66.15836153,-99999.0,'11111222,11111222,99999999' 
TABS,ioos:station:wmo:42045:1,2014-10-03T20:00:00Z,26.2168,-96.4998,2.0,174.5388759,64.62330385,-99999.0,'11111222,11111222,99999999' 
TABS,ioos:station:wmo:42045:1,2014-10-03T20:30:00Z,26.2168,-96.4998,2.0,178.7061192,62.89603167,-99999.0,'11111222,11111222,99999999' 
TABS,ioos:station:wmo:42045:1,2014-10-03T21:00:00Z,26.2168,-96.4998,2.0,183.2011104,63.56920166,-99999.0,'11111222,11111222,99999999' 
TABS,ioos:station:wmo:42045:1,2014-10-03T21:30:00Z,26.2168,-96.4998,2.0,195.7257634,63.49675976,-99999.0,'11111222,11111222,99999999' 
TABS,ioos:station:wmo:42045:1,2014-10-03T22:00:00Z,26.2168,-96.4998,2.0,197.0100862,64.74234858,-99999.0,'11111222,11111222,99999999' 
TABS,ioos:station:wmo:42045:1,2014-10-03T22:30:00Z,26.2168,-96.4998,2.0,205.226753,63.58427793,-99999.0,'11111222,11111222,99999999' 
TABS,ioos:station:wmo:42045:1,2014-10-03T23:00:00Z,26.2168,-96.4998,2.0,209.7563692,66.42928421,-99999.0,'11111222,11111222,99999999' 
TABS,ioos:station:wmo:42045:1,2014-10-03T23:30:00Z,26.2168,-96.4998,2.0,209.0355809,62.34587156,-99999.0,'11111222,11111222,99999999' 
TABS,ioos:station:wmo:42045:1,2014-10-04T00:00:00Z,26.2168,-96.4998,2.0,213.5260693,60.18244345,-99999.0,'11111222,11111222,99999999' 
TABS,ioos:station:wmo:42045:1,2014-10-04T00:30:00Z,26.2168,-96.4998,2.0,217.0661547,29.15017153,-99999.0,'11111222,11111222,99999999' 
TABS,ioos:station:wmo:42045:1,2014-10-04T01:00:00Z,26.2168,-96.4998,2.0,214.6769961,50.70712475,-99999.0,'11111222,11111222,99999999' 
TABS,ioos:station:wmo:42045:1,2014-10-04T01:30:00Z,26.2168,-96.4998,2.0,214.9026643,47.43194704,-99999.0,'11111222,11111222,99999999' 
TABS,ioos:station:wmo:42045:1,2014-10-04T02:00:00Z,26.2168,-96.4998,2.0,214.4437287,40.25807869,-99999.0,'11111222,11111222,99999999' 
TABS,ioos:station:wmo:42045:1,2014-10-04T02:30:00Z,26.2168,-96.4998,2.0,207.9428697,39.60774798,-99999.0,'11111222,11111222,99999999' 
TABS,ioos:station:wmo:42045:1,2014-10-04T03:00:00Z,26.2168,-96.4998,2.0,213.2997906,42.78501724,-99999.0,'11111222,11111222,99999999' 
TABS,ioos:station:wmo:42045:1,2014-10-04T03:30:00Z,26.2168,-96.4998,2.0,212.8598724,45.1906185,-99999.0,'11111222,11111222,99999999' 
TABS,ioos:station:wmo:42045:1,2014-10-04T04:00:00Z,26.2168,-96.4998,2.0,212.9520725,39.63661439,-99999.0,'11111222,11111222,99999999' 
TABS,ioos:station:wmo:42045:1,2014-10-04T04:30:00Z,26.2168,-96.4998,2.0,208.2975311,39.48912888,-99999.0,'11111222,11111222,99999999' 
TABS,ioos:station:wmo:42045:1,2014-10-04T05:00:00Z,26.2168,-96.4998,2.0,207.857826,32.69964067,-99999.0,'11111222,11111222,99999999' 
TABS,ioos:station:wmo:42045:1,2014-10-04T05:30:00Z,26.2168,-96.4998,2.0,213.3044347,30.1042605,-99999.0,'11111222,11111222,99999999' 
TABS,ioos:station:wmo:42045:1,2014-10-04T06:00:00Z,26.2168,-96.4998,2.0,210.8025724,33.58813034,-99999.0,'11111222,11111222,99999999' 
TABS,ioos:station:wmo:42045:1,2014-10-04T06:30:00Z,26.2168,-96.4998,2.0,208.3230418,34.39797668,-99999.0,'11111222,11111222,99999999' 
TABS,ioos:station:wmo:42045:1,2014-10-04T07:00:00Z,26.2168,-96.4998,2.0,211.517786,28.5404152,-99999.0,'11111222,11111222,99999999' 
TABS,ioos:station:wmo:42045:1,2014-10-04T07:30:00Z,26.2168,-96.4998,2.0,209.1673347,32.00878786,-99999.0,'11111222,11111222,99999999' 
TABS,ioos:station:wmo:42045:1,2014-10-04T08:00:00Z,26.2168,-96.4998,2.0,205.9359387,29.74596779,-99999.0,'11111222,11111222,99999999' 
TABS,ioos:station:wmo:42045:1,2014-10-04T08:30:00Z,26.2168,-96.4998,2.0,209.7704334,27.51090693,-99999.0,'11111222,11111222,99999999' 
TABS,ioos:station:wmo:42045:1,2014-10-04T09:00:00Z,26.2168,-96.4998,2.0,206.8609253,27.68736354,-99999.0,'11111222,11111222,99999999' 
TABS,ioos:station:wmo:42045:1,2014-10-04T09:30:00Z,26.2168,-96.4998,2.0,199.6459453,25.28173451,-99999.0,'11111222,11111222,99999999' 
TABS,ioos:station:wmo:42045:1,2014-10-04T10:00:00Z,26.2168,-96.4998,2.0,199.8080318,25.20110513,-99999.0,'11111222,11111222,99999999' 
TABS,ioos:station:wmo:42045:1,2014-10-04T10:30:00Z,26.2168,-96.4998,2.0,193.6331059,26.55830755,-99999.0,'11111222,11111222,99999999' 
TABS,ioos:station:wmo:42045:1,2014-10-04T11:00:00Z,26.2168,-96.4998,2.0,191.7153217,19.94551077,-99999.0,'11111222,11111222,99999999' 
TABS,ioos:station:wmo:42045:1,2014-10-04T11:30:00Z,26.2168,-96.4998,2.0,202.3829708,20.11555617,-99999.0,'11111222,11111222,99999999' 
TABS,ioos:station:wmo:42045:1,2014-10-04T12:00:00Z,26.2168,-96.4998,2.0,204.2509393,21.15703665,-99999.0,'11111222,11111222,99999999' 
TABS,ioos:station:wmo:42045:1,2014-10-04T12:30:00Z,26.2168,-96.4998,2.0,200.5744904,21.512164,-99999.0,'11111222,11111222,99999999' 
TABS,ioos:station:wmo:42045:1,2014-10-04T13:00:00Z,26.2168,-96.4998,2.0,201.6688523,18.49716194,-99999.0,'11111222,11111222,99999999' 
TABS,ioos:station:wmo:42045:1,2014-10-04T13:30:00Z,26.2168,-96.4998,2.0,192.7294123,20.42195877,-99999.0,'11111222,11111222,99999999' 
TABS,ioos:station:wmo:42045:1,2014-10-04T14:00:00Z,26.2168,-96.4998,2.0,198.3433794,17.85740463,-99999.0,'11111222,11111222,99999999' 
TABS,ioos:station:wmo:42045:1,2014-10-04T14:30:00Z,26.2168,-96.4998,2.0,197.402453,19.65990844,-99999.0,'11111222,11111222,99999999' 
TABS,ioos:station:wmo:42045:1,2014-10-04T15:00:00Z,26.2168,-96.4998,2.0,193.7491767,15.98814874,-99999.0,'11111222,11111222,99999999' 
TABS,ioos:station:wmo:42045:1,2014-10-04T15:30:00Z,26.2168,-96.4998,2.0,187.8690824,19.57433268,-99999.0,'11111222,11111222,99999999' 
TABS,ioos:station:wmo:42045:1,2014-10-04T16:00:00Z,26.2168,-96.4998,2.0,181.4004519,20.04598962,-99999.0,'11111222,11111222,99999999' 